K2MKS Weather Reports


time (UTC)temp
C
wind
direction
speed
KPH
gust
KPH
rain 1hr
cm
rain 24hr
cm
rain mn
cm
humidity
%
barometer
mb
20260504050459 8 205 0.0 0.0 0.00 0.03 0.00 87 1008.6
20260504050003 8 205 0.0 0.0 0.00 0.03 0.00 86 1008.7
20260504045506 8 205 0.0 0.0 0.00 0.03 0.00 86 1008.6
20260504045004 8 205 0.0 0.0 0.00 0.03 0.00 86 1008.6
20260504044502 8 205 0.0 0.0 0.00 0.03 0.00 86 1008.8
20260504043506 8 205 0.0 0.0 0.00 0.03 0.00 86 1008.8
20260504043006 8 205 0.0 0.0 0.00 0.03 0.00 85 1008.8
20260504042502 8 205 0.0 0.0 0.00 0.03 0.00 85 1008.8
20260504042004 8 205 0.0 0.0 0.00 0.03 0.00 85 1008.8
20260504041004 8 205 0.0 0.0 0.00 0.03 0.00 85 1008.9
20260504040504 8 205 0.0 0.0 0.00 0.03 0.00 84 1008.8
20260504040007 8 205 0.0 0.0 0.00 0.03 0.00 83 1008.9
20260504035503 8 205 0.0 0.0 0.00 0.03 0.03 83 1008.8
20260504035004 8 205 0.0 0.0 0.00 0.03 0.03 84 1008.9
20260504034500 8 205 0.0 0.0 0.00 0.03 0.03 84 1008.9
20260504034005 8 205 0.0 0.0 0.00 0.03 0.03 84 1008.9
20260504033504 8 205 0.0 0.0 0.00 0.03 0.03 84 1009.0
20260504033006 8 205 0.0 0.0 0.00 0.03 0.03 84 1008.9
20260504031505 8 251 0.0 0.0 0.00 0.03 0.03 84 1009.0
20260504031005 8 251 0.0 0.0 0.00 0.03 0.03 84 1009.2
20260504030503 8 251 0.0 0.0 0.00 0.03 0.03 83 1009.4
20260504030004 8 251 0.0 0.0 0.00 0.03 0.03 83 1009.2
20260504025506 8 251 0.0 0.0 0.00 0.03 0.03 82 1009.2
20260504025005 8 251 0.0 0.0 0.00 0.03 0.03 81 1009.2
20260504024506 9 251 0.0 0.0 0.00 0.03 0.03 81 1009.2
20260504023003 9 251 0.0 0.0 0.00 0.03 0.03 80 1009.3
20260504022501 9 251 0.0 0.0 0.03 0.03 0.03 79 1009.5
20260504022004 9 251 0.0 0.0 0.03 0.03 0.03 79 1009.7
20260504021504 9 251 0.0 0.0 0.03 0.03 0.03 78 1009.9
20260504021000 9 251 0.0 0.0 0.03 0.03 0.03 78 1009.9
20260504020007 9 251 0.0 0.0 0.03 0.03 0.03 77 1009.8
20260504015504 9 291 0.0 3.2 0.03 0.03 0.03 77 1009.9
20260504015004 9 267 0.0 6.4 0.03 0.03 0.03 76 1010.0
20260504014500 10 219 1.6 11.3 0.03 0.03 0.03 76 1010.0
20260504014005 10 257 3.2 11.3 0.03 0.03 0.03 74 1010.1
20260504013504 10 236 4.8 14.5 0.03 0.03 0.03 74 1010.3
20260504013004 10 206 4.8 14.5 0.03 0.03 0.03 72 1010.4
20260504012505 10 275 4.8 19.3 0.00 0.00 0.00 70 1010.4
20260504012004 10 271 3.2 19.3 0.00 0.00 0.00 68 1010.3
20260504011003 11 310 3.2 14.5 0.00 0.00 0.00 66 1009.8
20260504010500 11 154 4.8 16.1 0.00 0.00 0.00 65 1009.7
20260504010005 11 286 4.8 16.1 0.00 0.00 0.00 63 1009.6
20260504005500 11 295 4.8 16.1 0.00 0.00 0.00 63 1009.7
20260504005004 11 291 4.8 17.7 0.00 0.00 0.00 62 1009.7
20260504004502 11 264 3.2 16.1 0.00 0.00 0.00 61 1009.7
20260504004005 11 278 1.6 11.3 0.00 0.00 0.00 62 1009.6
20260504003501 11 326 3.2 17.7 0.00 0.00 0.00 63 1009.4
20260504003005 11 280 4.8 17.7 0.00 0.00 0.00 58 1009.3
20260504002005 11 277 4.8 30.6 0.00 0.00 0.00 58 1009.2
20260504001501 11 181 0.0 17.7 0.00 0.00 0.00 58 1009.1
20260504001001 11 112 0.0 3.2 0.00 0.00 0.00 58 1008.9
20260504000459 11 112 0.0 3.2 0.00 0.00 0.00 55 1008.7
20260504000000 11 132 0.0 0.0 0.00 0.00 0.00 53 1008.7
20260503234959 11 85 0.0 6.4 0.00 0.00 0.00 54 1008.5
20260503234500 11 173 0.0 6.4 0.00 0.00 0.00 52 1008.6
20260503234000 12 247 0.0 0.0 0.00 0.00 0.00 51 1008.8
20260503233500 12 247 0.0 0.0 0.00 0.00 0.00 49 1008.7
20260503233002 12 247 0.0 1.6 0.00 0.00 0.00 49 1008.7
20260503232001 12 215 3.2 11.3 0.00 0.00 0.00 49 1008.9
20260503231500 12 198 1.6 9.7 0.00 0.00 0.00 48 1009.2
20260503231001 12 241 3.2 12.9 0.00 0.00 0.00 48 1009.4
20260503230459 12 309 6.4 14.5 0.00 0.00 0.00 47 1009.6
20260503224959 12 111 4.8 19.3 0.00 0.00 0.00 44 1009.4
20260503224004 12 280 3.2 16.1 0.00 0.00 0.00 44 1009.2
20260503223459 12 277 3.2 16.1 0.00 0.00 0.00 42 1009.1
20260503222459 13 280 4.8 16.1 0.00 0.00 0.00 40 1009.2
20260503221459 13 281 1.6 6.4 0.00 0.00 0.00 43 1009.0
20260503220459 13 134 1.6 8.0 0.00 0.00 0.00 42 1009.0
20260503220000 13 193 1.6 8.0 0.00 0.00 0.00 41 1009.0
20260503215500 13 157 3.2 8.0 0.00 0.00 0.00 43 1009.1
20260503215000 13 277 3.2 8.0 0.00 0.00 0.00 42 1009.1
20260503214500 13 137 3.2 12.9 0.00 0.00 0.00 41 1009.1
20260503214000 13 265 1.6 12.9 0.00 0.00 0.00 41 1009.2
20260503213501 13 273 1.6 6.4 0.00 0.00 0.00 42 1009.2
20260503213000 13 256 1.6 6.4 0.00 0.00 0.00 42 1009.2
20260503212500 12 279 1.6 8.0 0.00 0.00 0.00 45 1009.1
20260503212000 12 277 1.6 8.0 0.00 0.00 0.00 42 1009.1
20260503211501 12 250 1.6 8.0 0.00 0.00 0.00 44 1009.1
20260503211004 12 198 3.2 11.3 0.00 0.00 0.00 47 1009.1
20260503210500 12 275 3.2 6.4 0.00 0.00 0.00 45 1009.2
20260503210002 12 272 1.6 4.8 0.00 0.00 0.00 46 1009.2
20260503205504 12 290 1.6 6.4 0.00 0.00 0.00 48 1009.2
20260503204504 12 194 3.2 12.9 0.00 0.00 0.00 46 1009.3
20260503204005 12 169 4.8 14.5 0.00 0.00 0.00 45 1009.4
20260503203504 12 277 3.2 14.5 0.00 0.00 0.00 44 1009.5
20260503203004 13 246 1.6 6.4 0.00 0.00 0.00 45 1009.5
20260503202500 13 168 1.6 9.7 0.00 0.00 0.00 43 1009.6
20260503202003 13 193 1.6 9.7 0.00 0.00 0.00 42 1009.6
20260503201505 13 204 3.2 14.5 0.00 0.00 0.00 41 1009.8
20260503201003 13 275 3.2 14.5 0.00 0.00 0.00 40 1009.8
20260503200504 13 145 3.2 8.0 0.00 0.00 0.00 39 1009.8
20260503200004 13 185 4.8 17.7 0.00 0.00 0.00 41 1009.9
20260503195000 12 296 6.4 17.7 0.00 0.00 0.00 41 1010.0
20260503194501 12 294 3.2 16.1 0.00 0.00 0.00 41 1010.1
20260503194000 12 355 3.2 8.0 0.00 0.00 0.00 42 1010.1
20260503193000 12 55 4.8 16.1 0.00 0.00 0.00 40 1010.2
20260503192500 12 240 4.8 16.1 0.00 0.00 0.00 41 1010.3
20260503191959 12 283 3.2 14.5 0.00 0.00 0.00 42 1010.2
20260503191500 12 321 3.2 16.1 0.00 0.00 0.00 44 1010.1
20260503190959 12 244 3.2 16.1 0.00 0.00 0.00 42 1010.3
20260503185500 13 155 3.2 14.5 0.00 0.00 0.00 40 1010.3
20260503185002 12 261 3.2 9.7 0.00 0.00 0.00 39 1010.4
20260503184500 12 251 3.2 17.7 0.00 0.00 0.00 40 1010.4
20260503184002 13 290 3.2 17.7 0.00 0.00 0.00 38 1010.4
20260503183501 13 136 4.8 14.5 0.00 0.00 0.00 41 1010.5
20260503183000 13 288 6.4 17.7 0.00 0.00 0.00 41 1010.6
20260503182502 12 171 4.8 16.1 0.00 0.00 0.00 40 1010.6
20260503181959 12 129 4.8 16.1 0.00 0.00 0.00 38 1010.9
20260503181500 12 201 4.8 16.1 0.00 0.00 0.00 39 1010.9
20260503181000 12 276 3.2 17.7 0.00 0.00 0.00 38 1010.9
20260503180500 12 289 3.2 14.5 0.00 0.00 0.00 44 1011.0
20260503180001 12 278 3.2 12.9 0.00 0.00 0.00 39 1011.0
20260503175459 12 265 3.2 12.9 0.00 0.00 0.00 39 1011.1
20260503175000 12 292 4.8 14.5 0.00 0.00 0.00 37 1011.0
20260503174502 12 259 4.8 16.1 0.00 0.00 0.00 39 1011.1
20260503174000 12 271 3.2 14.5 0.00 0.00 0.00 40 1011.0
20260503173500 12 222 3.2 11.3 0.00 0.00 0.00 39 1011.2
20260503172500 12 256 4.8 14.5 0.00 0.00 0.00 37 1011.3
20260503172001 12 360 3.2 12.9 0.00 0.00 0.00 39 1011.3
20260503171500 11 315 3.2 12.9 0.00 0.00 0.00 37 1011.3
20260503171001 11 231 3.2 14.5 0.00 0.00 0.00 43 1011.4
20260503170500 11 267 4.8 16.1 0.00 0.00 0.00 39 1011.5
20260503151000 9 286 4.8 17.7 0.00 0.00 0.00 42 1013.1
20260503130501 6 286 4.8 9.7 0.00 0.00 0.00 64 1013.6
20260503110500 2 239 0.0 0.0 0.00 0.00 0.00 87 1013.1
20260503090459 3 255 0.0 0.0 0.00 0.00 0.00 81 1012.7
20260503080959 3 240 0.0 1.6 0.00 0.00 0.00 81 1012.8
20260503080459 3 240 0.0 1.6 0.00 0.00 0.00 81 1012.8
20260503072457 3 244 0.0 3.2 0.00 0.00 0.00 80 1012.8
20260503071457 3 252 0.0 3.2 0.00 0.00 0.00 81 1012.7
20260503070959 3 185 0.0 3.2 0.00 0.00 0.00 81 1012.7
20260503070458 3 254 0.0 1.6 0.00 0.00 0.00 80 1012.7
20260503055000 4 198 0.0 1.6 0.00 0.00 0.00 81 1012.8
20260503054458 4 182 0.0 1.6 0.00 0.00 0.00 81 1012.9